TimeEDT,TemperatureF,Dew PointF,Humidity,Sea Level PressureIn,VisibilityMPH,Wind Direction,Wind SpeedMPH,Gust SpeedMPH,PrecipitationIn,Events,Conditions,WindDirDegrees,DateUTC
12:15 AM,60.8,57.2,88,30.06,9.0,East,3.5,-,N/A,,Overcast,80,2013-03-18 04:15:00
12:35 AM,62.6,57.2,82,30.05,10.0,Calm,Calm,-,N/A,,Mostly Cloudy,0,2013-03-18 04:35:00
12:55 AM,62.6,57.2,82,30.04,10.0,Calm,Calm,-,N/A,,Mostly Cloudy,0,2013-03-18 04:55:00
1:15 AM,62.6,55.4,77,30.04,10.0,Calm,Calm,-,N/A,,Overcast,0,2013-03-18 05:15:00
1:35 AM,62.6,57.2,82,30.04,10.0,Calm,Calm,-,N/A,,Overcast,0,2013-03-18 05:35:00
1:55 AM,60.8,57.2,88,30.04,10.0,Calm,Calm,-,N/A,,Overcast,0,2013-03-18 05:55:00
2:15 AM,60.8,57.2,88,30.04,8.0,Calm,Calm,-,0.01,,Mostly Cloudy,0,2013-03-18 06:15:00
2:35 AM,60.8,57.2,88,30.04,5.0,SE,3.5,-,0.04,,Mostly Cloudy,130,2013-03-18 06:35:00
2:55 AM,60.8,57.2,88,30.04,10.0,North,4.6,-,0.04,,Mostly Cloudy,350,2013-03-18 06:55:00
3:15 AM,60.8,55.4,82,30.03,8.0,North,3.5,-,N/A,,Mostly Cloudy,350,2013-03-18 07:15:00
3:35 AM,60.8,55.4,82,30.03,5.0,Calm,Calm,-,N/A,,Mostly Cloudy,0,2013-03-18 07:35:00
3:55 AM,60.8,55.4,82,30.02,5.0,Calm,Calm,-,N/A,,Mostly Cloudy,0,2013-03-18 07:55:00
4:15 AM,60.8,57.2,88,30.01,5.0,Calm,Calm,-,N/A,,Mostly Cloudy,0,2013-03-18 08:15:00
4:35 AM,60.8,55.4,82,30.00,8.0,Calm,Calm,-,N/A,,Mostly Cloudy,0,2013-03-18 08:35:00
4:55 AM,60.8,55.4,82,29.99,9.0,Calm,Calm,-,N/A,,Partly Cloudy,0,2013-03-18 08:55:00
5:15 AM,59.0,55.4,88,30.00,6.0,Calm,Calm,-,N/A,,Scattered Clouds,0,2013-03-18 09:15:00
5:35 AM,59.0,55.4,88,30.00,4.0,Calm,Calm,-,N/A,,Mostly Cloudy,0,2013-03-18 09:35:00
5:55 AM,57.2,55.4,94,30.01,3.0,Calm,Calm,-,N/A,,Scattered Clouds,0,2013-03-18 09:55:00
6:15 AM,57.2,53.6,88,30.02,1.5,Calm,Calm,-,N/A,,Scattered Clouds,0,2013-03-18 10:15:00
6:35 AM,57.2,55.4,94,30.01,7.0,SE,3.5,-,N/A,,Overcast,140,2013-03-18 10:35:00
6:50 AM,59.0,55.4,88,30.02,6.0,Calm,Calm,-,N/A,,Overcast,0,2013-03-18 10:50:00
7:50 AM,60.8,55.4,82,30.04,7.0,WSW,3.5,-,N/A,,Mostly Cloudy,240,2013-03-18 11:50:00
8:50 AM,62.6,57.2,82,30.04,10.0,Calm,Calm,-,N/A,,Mostly Cloudy,0,2013-03-18 12:50:00
9:50 AM,62.6,57.2,82,30.06,10.0,SSW,4.6,-,N/A,,Mostly Cloudy,200,2013-03-18 13:50:00
10:50 AM,64.4,59.0,83,30.07,10.0,SSW,4.6,-,N/A,,Mostly Cloudy,200,2013-03-18 14:50:00
11:50 AM,69.8,60.8,73,30.05,10.0,South,11.5,-,N/A,,Mostly Cloudy,190,2013-03-18 15:50:00
12:50 PM,69.8,62.6,78,30.04,10.0,South,4.6,-,N/A,,Scattered Clouds,190,2013-03-18 16:50:00
1:50 PM,73.4,62.6,69,30.01,10.0,South,5.8,-,N/A,,Scattered Clouds,180,2013-03-18 17:50:00
2:50 PM,75.2,60.8,61,29.98,10.0,SW,10.4,-,N/A,,Scattered Clouds,220,2013-03-18 18:50:00
3:50 PM,77.0,60.8,57,29.95,10.0,SSW,11.5,-,N/A,,Scattered Clouds,210,2013-03-18 19:50:00
4:50 PM,77.0,57.2,50,29.94,10.0,South,6.9,-,N/A,,Scattered Clouds,170,2013-03-18 20:50:00
5:50 PM,75.2,59.0,57,29.93,10.0,SSW,10.4,-,N/A,,Scattered Clouds,200,2013-03-18 21:50:00
6:50 PM,75.2,59.0,57,29.94,10.0,SSW,5.8,-,N/A,,Overcast,210,2013-03-18 22:50:00
7:55 PM,71.6,59.0,64,29.93,10.0,SE,3.5,-,N/A,,Clear,140,2013-03-18 23:55:00
8:15 PM,71.6,59.0,64,29.92,10.0,SSE,3.5,-,N/A,,Clear,160,2013-03-19 00:15:00
8:35 PM,69.8,59.0,68,29.92,10.0,South,3.5,-,N/A,,Clear,170,2013-03-19 00:35:00
8:55 PM,71.6,60.8,69,29.91,10.0,South,4.6,-,N/A,,Clear,170,2013-03-19 00:55:00
9:15 PM,69.8,60.8,73,29.91,10.0,SW,6.9,-,N/A,,Clear,220,2013-03-19 01:15:00
9:35 PM,69.8,60.8,73,29.90,10.0,SSW,9.2,-,N/A,,Clear,200,2013-03-19 01:35:00
9:55 PM,68.0,60.8,78,29.91,10.0,SSW,8.1,-,N/A,,Clear,210,2013-03-19 01:55:00
10:15 PM,68.0,60.8,78,29.92,10.0,SW,8.1,-,N/A,,Clear,230,2013-03-19 02:15:00
10:35 PM,68.0,60.8,78,29.92,10.0,SW,8.1,-,N/A,,Clear,220,2013-03-19 02:35:00
10:55 PM,66.2,60.8,83,29.93,10.0,WSW,4.6,-,N/A,,Clear,250,2013-03-19 02:55:00
11:15 PM,66.2,60.8,83,29.94,10.0,Calm,Calm,-,N/A,,Clear,0,2013-03-19 03:15:00
11:55 PM,64.4,59.0,83,29.96,9.0,Calm,Calm,-,N/A,,Clear,0,2013-03-19 03:55:00